カタログに戻る

O3B FM14

運用中通信MEO
NORAD 43233·PAYLOAD·🇱🇺 Luxembourg

打ち上げ Mar 9, 2018 から Guiana Space Centre

Loading…

次のパス (今後24時間)

TLE

最新Source: CelesTrak SupGP

元期: Sep 14, 2026, 16:59 UTC

1 43233C 18024C   26257.70833333  .00000000  00000+0  00000+0 0  2577
2 43233   0.0584   1.2174 0002830 171.1514 136.2616  5.00115978    14

AllMySatでO3B FM14をリアルタイム追跡

Download on the App Store